TimeGMT,TemperatureF,Dew PointF,Humidity,Sea Level PressureIn,VisibilityMPH,Wind Direction,Wind SpeedMPH,Gust SpeedMPH,PrecipitationIn,Events,Conditions,WindDirDegrees,DateUTC
12:00 AM,42,35,66,30.09,28,NNW,11.5,,,Rain,Light Rain Showers,340,2012-12-06 00:00:00
3:00 AM,41,33,63,30.10,28,NNW,8.1,,,,,330,2012-12-06 03:00:00
3:50 AM,41.0,33.8,76,30.06,6.2,Calm,Calm,-,N/A,,Partly Cloudy,0,2012-12-06 03:50:00
4:20 AM,39.2,33.8,81,30.09,6.2,Calm,Calm,-,N/A,,Partly Cloudy,0,2012-12-06 04:20:00
4:50 AM,39.2,33.8,81,30.09,6.2,Calm,Calm,-,N/A,,Partly Cloudy,0,2012-12-06 04:50:00
5:20 AM,39.2,32.0,75,30.06,6.2,Calm,Calm,-,N/A,,Partly Cloudy,0,2012-12-06 05:20:00
5:50 AM,39.2,32.0,75,30.06,6.2,Calm,Calm,-,N/A,,Partly Cloudy,0,2012-12-06 05:50:00
6:00 AM,39,32,66,30.10,25,Calm,Calm,,,,Partly Cloudy,,2012-12-06 06:00:00
6:20 AM,39.2,32.0,75,30.06,6.2,Calm,Calm,-,N/A,,Partly Cloudy,0,2012-12-06 06:20:00
6:50 AM,41.0,32.0,70,30.09,6.2,Calm,Calm,-,N/A,,Partly Cloudy,0,2012-12-06 06:50:00
7:20 AM,39.2,33.8,81,30.09,6.2,North,8.1,-,N/A,Rain,Light Rain Showers,350,2012-12-06 07:20:00
7:50 AM,37.4,33.8,87,30.06,6.2,NE,4.6,-,N/A,,Partly Cloudy,50,2012-12-06 07:50:00
8:20 AM,37.4,33.8,87,30.06,6.2,East,2.3,-,N/A,,Partly Cloudy,100,2012-12-06 08:20:00
8:50 AM,41.0,33.8,76,30.09,6.2,Calm,Calm,-,N/A,,Partly Cloudy,0,2012-12-06 08:50:00
9:00 AM,40,34,72,30.12,31,Calm,Calm,,,,Partly Cloudy,,2012-12-06 09:00:00
9:20 AM,41.0,35.6,81,30.06,6.2,ESE,3.5,-,N/A,,Partly Cloudy,120,2012-12-06 09:20:00
9:50 AM,42.8,37.4,81,30.06,6.2,SSW,4.6,-,N/A,,Partly Cloudy,200,2012-12-06 09:50:00
10:20 AM,44.6,37.4,76,30.06,6.2,South,8.1,-,N/A,,Scattered Clouds,190,2012-12-06 10:20:00
10:50 AM,44.6,35.6,71,30.06,6.2,SSW,9.2,-,N/A,,Scattered Clouds,210,2012-12-06 10:50:00
11:20 AM,46.4,37.4,71,30.04,6.2,SW,10.4,-,N/A,,Scattered Clouds,230,2012-12-06 11:20:00
11:50 AM,42.8,39.2,87,30.04,6.2,SW,11.5,-,N/A,,Partly Cloudy,220,2012-12-06 11:50:00
12:00 PM,43,38,77,30.06,16,SW,11.5,,,Rain,Light Rain Showers,220,2012-12-06 12:00:00
12:20 PM,42.8,39.2,87,30.04,6.2,SW,12.7,-,N/A,Rain,Light Rain Showers,230,2012-12-06 12:20:00
12:50 PM,42.8,41.0,93,30.01,6.2,South,5.8,-,N/A,,Scattered Clouds,190,2012-12-06 12:50:00
1:20 PM,42.8,39.2,87,30.01,6.2,SW,15.0,-,N/A,,Scattered Clouds,230,2012-12-06 13:20:00
1:50 PM,44.6,37.4,76,30.01,6.2,WSW,17.3,-,N/A,,Scattered Clouds,240,2012-12-06 13:50:00
2:20 PM,44.6,37.4,76,29.98,6.2,SW,17.3,-,N/A,,Mostly Cloudy,230,2012-12-06 14:20:00
2:50 PM,44.6,37.4,76,29.98,6.2,SW,16.1,-,N/A,,Scattered Clouds,220,2012-12-06 14:50:00
3:00 PM,45,37,64,29.99,25,SW,16.1,,,,Mostly Cloudy,220,2012-12-06 15:00:00
3:20 PM,44.6,35.6,71,29.95,6.2,SW,16.1,-,N/A,,Scattered Clouds,230,2012-12-06 15:20:00
3:50 PM,44.6,33.8,66,29.95,6.2,SW,19.6,-,N/A,,Partly Cloudy,220,2012-12-06 15:50:00
4:20 PM,44.6,37.4,76,29.92,6.2,SW,17.3,-,N/A,,Partly Cloudy,220,2012-12-06 16:20:00
4:50 PM,44.6,37.4,76,29.92,6.2,SSW,18.4,-,N/A,,Partly Cloudy,210,2012-12-06 16:50:00
5:20 PM,46.4,37.4,71,29.89,6.2,SSW,19.6,-,N/A,,Partly Cloudy,210,2012-12-06 17:20:00
5:50 PM,46.4,39.2,76,29.86,6.2,SSW,20.7,33.4,N/A,,Partly Cloudy,200,2012-12-06 17:50:00
6:00 PM,46,38,66,29.89,28,SSW,20.7,,,,Partly Cloudy,200,2012-12-06 18:00:00
6:20 PM,46.4,39.2,76,29.86,6.2,SSW,20.7,32.2,N/A,,Mostly Cloudy,200,2012-12-06 18:20:00
6:50 PM,44.6,39.2,81,29.86,6.2,SSW,21.9,-,N/A,Rain,Light Rain,210,2012-12-06 18:50:00
7:20 PM,46.4,41.0,81,29.83,6.2,SSW,24.2,-,N/A,Rain,Light Rain,210,2012-12-06 19:20:00
7:50 PM,46.4,42.8,87,29.80,6.2,SW,21.9,-,N/A,Rain,Light Rain,220,2012-12-06 19:50:00
8:20 PM,46.4,42.8,87,29.80,6.2,SW,21.9,-,N/A,Rain,Light Rain,230,2012-12-06 20:20:00
8:50 PM,46.4,42.8,87,29.77,5.0,West,20.7,-,N/A,Rain,Rain,260,2012-12-06 20:50:00
9:00 PM,46,44,88,29.81,5,West,20.7,,,Rain,Rain,260,2012-12-06 21:00:00